Flag for Germany Weather past 2 weeks in Warendorf, North Rhine-Westphalia, Germany

Now
57 °F

Sunny.


Feels Like: 57 °F
Forecast: 51 / 73 °F
Wind: 1 mph from North

Location: Muenster / Osnabrueck

Current Time: Aug 27, 2014 at 10:12:07 PM

Latest Report: Aug 27, 2014 at 9:20 PM


Visibility: 10 mi

Pressure: 30.04 "Hg

Humidity: 82%

Dew point: 52 °F

Location of WarendorfLocation

Historic Weather in Warendorf — Graph

°F

Warendorf temperature yesterday

Maximum temperature yesterday: 61 °F (at 2:50 PM)
Minimum temperature yesterday: 50 °F (at 11:20 PM)
Average temperature yesterday: 56 °F

Past Weeks' High & Low Weather Summary

 TemperatureHumidityPressure
High70 °F (Aug 13, 3:50 PM)100% (Aug 13, 2:20 AM)30.07 "Hg (Aug 13, 2:20 AM)
Low41 °F (Aug 25, 3:50 AM)40% (Aug 27, 6:20 PM)29.62 "Hg (Aug 18, 4:20 AM)
Average56 °F83%29.87 "Hg
* Reported Aug 12 8:20 PM — Aug 27 8:50 PM, Warendorf, Weather by CustomWeather, © 2014

Note: Actual official high and low records may vary slightly from our data, if they occured in-between our weather recording intervals... More about our weather records

Advertising

Warendorf weather history for previous 24 hours

 ConditionsComfort  
Time TempWeatherWind HumidityBarometerVisibility
8:50 PM
Aug 27
57 °FSunny.2 mph88%30.04 "Hg10 mi
7:50 PM64 °FSunny.2 mph68%30.01 "Hg10 mi
7:20 PM68 °FSunny.1 mph49%30.01 "Hg10 mi
6:20 PM70 °FSunny.2 mph40%30.01 "Hg10 mi
4:20 PM68 °FPassing clouds.2 mph46%30.01 "HgN/A
3:50 PM68 °FPassing clouds.3 mph49%30.04 "HgN/A
3:20 PM68 °FPassing clouds.1 mph46%30.04 "HgN/A
2:50 PM66 °FPassing clouds.3 mph49%30.04 "HgN/A
2:20 PM68 °FPassing clouds.3 mph49%30.04 "HgN/A
1:50 PM70 °FPassing clouds.1 mph53%30.04 "HgN/A
1:20 PM68 °FPassing clouds.3 mph53%30.04 "HgN/A
12:20 PM66 °FPassing clouds.1 mph56%30.04 "HgN/A
11:50 AM64 °FPassing clouds.3 mph60%30.04 "HgN/A
11:20 AM63 °FPassing clouds.3 mph64%30.01 "HgN/A
10:50 AM63 °FPassing clouds.1 mph68%30.01 "HgN/A
10:20 AM61 °FSunny.1 mph72%30.01 "Hg10 mi
9:50 AM57 °FSunny.2 mph82%30.01 "Hg10 mi
9:20 AM55 °FSunny.1 mph88%29.98 "Hg10 mi
8:50 AM52 °FSunny.2 mph94%29.98 "Hg10 mi
8:20 AM50 °FClear.2 mph94%29.98 "Hg6 mi
7:50 AM48 °FClear.2 mph94%29.98 "Hg5 mi
7:20 AM45 °FQuite cool.3 mph100%29.95 "Hg2 mi
6:50 AM43 °FQuite cool.2 mph100%29.95 "Hg6 mi
6:20 AM45 °FFog.2 mph100%29.92 "Hg1 mi
5:50 AM43 °FFog.2 mph100%29.92 "Hg1 mi
5:20 AM45 °FQuite cool.3 mph100%29.92 "HgN/A
4:50 AM46 °FCool.3 mph100%29.92 "HgN/A
4:20 AM46 °FCool.1 mph100%29.92 "HgN/A
3:50 AM46 °FCool.2 mph100%29.89 "HgN/A
3:20 AM48 °FFog.1 mph100%29.89 "HgN/A
2:20 AM48 °FClear.3 mph100%29.89 "Hg10 mi
1:50 AM48 °FClear.6 mph94%29.86 "Hg10 mi
1:20 AM50 °FClear.5 mph94%29.86 "Hg10 mi
12:50 AM50 °FClear.5 mph94%29.86 "Hg10 mi
12:20 AM50 °FClear.2 mph94%29.86 "Hg10 mi
11:20 PM
Aug 26
50 °FFog.3 mph100%29.83 "HgN/A
10:50 PM52 °FCool.2 mph100%29.83 "HgN/A
10:20 PM52 °FFog.1 mph100%29.83 "HgN/A
Weather by CustomWeather, © 2014

See weather overviewHow to use our weather pages